Flag for U.S.A. Weather past 2 weeks in Virginia Beach, Virginia, U.S.A.

52 °F

Light rain. Fog.

Feels Like: 49 °F
Forecast: 53 / 58 °F
Wind: 9 mph from North

Location: Virginia Beach - Oceana

Current Time: Nov 30, 2015 at 5:23:25 AM

Latest Report: Nov 30, 2015 at 4:56 AM

Visibility: 4 mi

Pressure: 30.23 "Hg

Humidity: 86%

Dew point: 48 °F

Location of Virginia BeachLocation

Historic Weather in Virginia Beach — Graph


Virginia Beach temperature yesterday

Maximum temperature yesterday: 64 °F (at 9:56 AM)
Minimum temperature yesterday: 53 °F (at 12:56 AM)
Average temperature yesterday: 58 °F

Past Weeks' High & Low Weather Summary

High73 °F (Nov 27, 1:56 PM)100% (Nov 22, 11:56 AM)30.75 "Hg (Nov 22, 11:56 AM)
Low29 °F (Nov 24, 6:56 AM)21% (Nov 16, 1:56 PM)29.91 "Hg (Nov 22, 2:56 PM)
Average56 °F66%30.29 "Hg
* Reported Nov 15 3:56 AM — Nov 30 3:56 AM, Virginia Beach, Weather by CustomWeather, © 2015

Note: Actual official high and low records may vary slightly from our data, if they occured in-between our weather recording intervals... More about our weather records


Virginia Beach weather history for previous 24 hours

Time TempWeatherWind HumidityBarometerVisibility
3:56 AM
Mon, Nov 30
51 °FLight rain. Fog.9 mph86%30.23 "Hg6 mi
2:56 AM52 °FLight rain. Fog.10 mph86%30.24 "Hg6 mi
1:56 AM53 °FLight rain. Fog.12 mph83%30.22 "Hg6 mi
12:56 AM53 °FLight rain. Fog.15 mph86%30.22 "Hg2 mi
11:56 PM
Sun, Nov 29
54 °FDrizzle. Fog.12 mph86%30.21 "Hg3 mi
10:56 PM54 °FDrizzle. Fog.12 mph83%30.21 "Hg4 mi
9:56 PM55 °FDrizzle. Fog.12 mph83%30.22 "Hg5 mi
8:56 PM56 °FDrizzle. Low clouds.15 mph84%30.21 "Hg10 mi
7:56 PM56 °FDrizzle. Fog.13 mph87%30.18 "Hg10 mi
6:56 PM56 °FDrizzle. Fog.14 mph84%30.18 "Hg6 mi
5:56 PM57 °FDrizzle. Fog.13 mph83%30.19 "Hg3 mi
4:56 PM56 °FDrizzle. Fog.9 mph87%30.16 "Hg1 mi
3:56 PM57 °FFog.13 mph81%30.15 "Hg3 mi
2:56 PM60 °FFog.12 mph80%30.14 "Hg4 mi
1:56 PM63 °FMostly cloudy.9 mph75%30.14 "Hg7 mi
12:56 PM63 °FLow clouds.5 mph78%30.13 "Hg7 mi
11:56 AM62 °FFog.5 mph80%30.15 "Hg5 mi
10:56 AM63 °FMostly cloudy.8 mph78%30.16 "Hg7 mi
9:56 AM64 °FPartly sunny.12 mph73%30.17 "Hg10 mi
8:56 AM62 °FMostly cloudy.6 mph75%30.16 "Hg10 mi
7:56 AM58 °FMostly cloudy.No wind84%30.16 "Hg10 mi
6:56 AM57 °FPartly sunny.No wind81%30.13 "Hg10 mi
5:56 AM57 °FPassing clouds.3 mph81%30.13 "Hg10 mi
Weather by CustomWeather, © 2015

See weather overviewHow to use our weather pages